Location: Curupao
(10.4996°N, 66.6442°W)
Time: 09:57:15
(UTC+00:00)

Cosmos 2360 Rocket - Pass Details

Date: 23 May 2024
Orbit: 832 x 846 km, 71.0° (Epoch: 18 June)

Event Time Altitude Azimuth Distance (km) Brightness Sun altitude
Rises 08:57:59 0° 318° (NW) 3,393 5.2 -15.7°
Reaches altitude 10° 09:01:06 10° 301° (WNW) 2,457 4.3 -15.0°
Enters shadow 09:04:46 19° 260° (W) 1,888 3.4 -14.2°
